SP2WPY-13 Weather Reports


time (UTC)temp
C
wind
direction
speed
KPH
gust
KPH
rain 1hr
cm
rain 24hr
cm
rain mn
cm
humidity
%
barometer
mb
20260503053609 20 243 14.5 0.0 0.00 0.00 0.00 34 1016.2
20260503053134 19 238 9.7 0.0 0.00 0.00 0.00 35 1016.2
20260503052615 18 235 8.0 0.0 0.00 0.00 0.00 35 1016.3
20260503052141 18 243 14.5 0.0 0.00 0.00 0.00 35 1016.2
20260503051621 18 233 8.0 0.0 0.00 0.00 0.00 35 1016.2
20260503051101 18 241 9.7 0.0 0.00 0.00 0.00 35 1016.3
20260503050628 18 232 8.0 0.0 0.00 0.00 0.00 35 1016.3
20260503050108 18 236 8.0 0.0 0.00 0.00 0.00 36 1016.3
20260503045634 18 241 8.0 0.0 0.00 0.00 0.00 36 1016.3
20260503045114 17 226 8.0 0.0 0.00 0.00 0.00 37 1016.3
20260503044640 17 222 12.9 0.0 0.00 0.00 0.00 37 1016.4
20260503044120 17 237 8.0 0.0 0.00 0.00 0.00 37 1016.3
20260503043646 17 238 8.0 0.0 0.00 0.00 0.00 37 1016.3
20260503043127 17 237 9.7 0.0 0.00 0.00 0.00 38 1016.3
20260503042607 17 234 11.3 0.0 0.00 0.00 0.00 38 1016.3
20260503042133 17 228 8.0 0.0 0.00 0.00 0.00 38 1016.3
20260503041614 17 219 9.7 0.0 0.00 0.00 0.00 38 1016.4
20260503041139 17 231 9.7 0.0 0.00 0.00 0.00 38 1016.4
20260503040619 16 243 12.9 0.0 0.00 0.00 0.00 39 1016.4
20260503040146 16 256 11.3 0.0 0.00 0.00 0.00 39 1016.4
20260503035626 16 226 6.4 0.0 0.00 0.00 0.00 39 1016.4
20260503035106 16 242 12.9 0.0 0.00 0.00 0.00 39 1016.4
20260503034632 16 218 6.4 0.0 0.00 0.00 0.00 39 1016.4
20260503034112 16 235 8.0 0.0 0.00 0.00 0.00 39 1016.4
20260503033638 16 233 8.0 0.0 0.00 0.00 0.00 40 1016.4
20260503033118 16 210 9.7 0.0 0.00 0.00 0.00 40 1016.4
20260503032645 16 223 11.3 0.0 0.00 0.00 0.00 40 1016.4
20260503032124 16 222 9.7 0.0 0.00 0.00 0.00 40 1016.5
20260503031605 16 216 11.3 0.0 0.00 0.00 0.00 40 1016.5
20260503031131 16 240 12.9 0.0 0.00 0.00 0.00 40 1016.5
20260503030612 16 234 11.3 0.0 0.00 0.00 0.00 40 1016.5
20260503030137 16 230 11.3 0.0 0.00 0.00 0.00 40 1016.6
20260503025617 16 235 9.7 0.0 0.00 0.00 0.00 40 1016.6
20260503025143 16 240 8.0 0.0 0.00 0.00 0.00 40 1016.6
20260503024624 16 238 11.3 0.0 0.00 0.00 0.00 40 1016.6
20260503024104 16 232 11.3 0.0 0.00 0.00 0.00 41 1016.6
20260503023630 16 237 9.7 0.0 0.00 0.00 0.00 41 1016.7
20260503023111 16 238 8.0 0.0 0.00 0.00 0.00 41 1016.7
20260503022637 16 247 11.3 0.0 0.00 0.00 0.00 41 1016.7
20260503022117 16 228 8.0 0.0 0.00 0.00 0.00 41 1016.7
20260503021643 16 235 8.0 0.0 0.00 0.00 0.00 41 1016.8
20260503021123 16 227 9.7 0.0 0.00 0.00 0.00 41 1016.8
20260503020603 16 238 9.7 0.0 0.00 0.00 0.00 41 1016.8
20260503020130 16 216 11.3 0.0 0.00 0.00 0.00 41 1016.8
20260503015610 16 249 11.3 0.0 0.00 0.00 0.00 41 1016.9
20260503015136 16 225 12.9 0.0 0.00 0.00 0.00 41 1016.8
20260503014616 16 204 6.4 0.0 0.00 0.00 0.00 42 1016.9
20260503014143 16 236 9.7 0.0 0.00 0.00 0.00 42 1016.9
20260503013623 16 225 8.0 0.0 0.00 0.00 0.00 42 1016.9
20260503013103 16 216 8.0 0.0 0.00 0.00 0.00 42 1016.9
20260503012629 16 224 9.7 0.0 0.00 0.00 0.00 43 1016.9
20260503012110 16 249 9.7 0.0 0.00 0.00 0.00 43 1016.9
20260503011635 16 226 6.4 0.0 0.00 0.00 0.00 43 1016.9
20260503011115 16 234 8.0 0.0 0.00 0.00 0.00 43 1017.1
20260503010641 16 244 8.0 0.0 0.00 0.00 0.00 43 1017.0
20260503010122 16 223 9.7 0.0 0.00 0.00 0.00 43 1017.1
20260503005602 16 205 8.0 0.0 0.00 0.00 0.00 44 1017.1
20260503005128 16 227 6.4 0.0 0.00 0.00 0.00 44 1017.2
20260503004609 16 226 8.0 0.0 0.00 0.00 0.00 44 1017.2
20260503004135 16 232 6.4 0.0 0.00 0.00 0.00 44 1017.3
20260503003615 16 251 8.0 0.0 0.00 0.00 0.00 44 1017.3
20260503003152 16 237 11.3 0.0 0.00 0.00 0.00 44 1017.3
20260503002621 16 230 6.4 0.0 0.00 0.00 0.00 44 1017.3
20260503002102 16 233 6.4 0.0 0.00 0.00 0.00 44 1017.5
20260503001627 16 226 11.3 0.0 0.00 0.00 0.00 44 1017.4
20260503001107 16 227 8.0 0.0 0.00 0.00 0.00 44 1017.4
20260503000634 16 226 9.7 0.0 0.00 0.00 0.00 44 1017.5
20260503000114 16 223 6.4 0.0 0.00 0.00 0.00 44 1017.5
20260502235639 16 219 8.0 0.0 0.00 0.00 0.00 44 1017.5
20260502235120 16 233 9.7 0.0 0.00 0.00 0.00 44 1017.6
20260502234601 16 235 9.7 0.0 0.00 0.00 0.00 44 1017.6
20260502234126 16 240 6.4 0.0 0.00 0.00 0.00 43 1017.7
20260502233606 16 223 6.4 0.0 0.00 0.00 0.00 43 1017.6
20260502233134 16 250 11.3 0.0 0.00 0.00 0.00 43 1017.7
20260502232613 16 247 8.0 0.0 0.00 0.00 0.00 43 1017.7
20260502232140 16 232 8.0 0.0 0.00 0.00 0.00 42 1017.8
20260502231620 16 230 11.3 0.0 0.00 0.00 0.00 42 1017.8
20260502231146 16 237 9.7 0.0 0.00 0.00 0.00 42 1017.8
20260502230627 16 241 8.0 0.0 0.00 0.00 0.00 42 1017.8
20260502230105 16 246 11.3 0.0 0.00 0.00 0.00 42 1017.9
20260502225632 16 246 11.3 0.0 0.00 0.00 0.00 42 1017.9
20260502225113 16 233 8.0 0.0 0.00 0.00 0.00 42 1018.0
20260502224639 16 236 9.7 0.0 0.00 0.00 0.00 42 1018.0
20260502224119 16 244 8.0 0.0 0.00 0.00 0.00 42 1018.1
20260502223645 16 240 9.7 0.0 0.00 0.00 0.00 42 1018.0
20260502223125 16 251 9.7 0.0 0.00 0.00 0.00 42 1018.1
20260502222606 16 243 11.3 0.0 0.00 0.00 0.00 42 1018.0
20260502222132 16 260 14.5 0.0 0.00 0.00 0.00 41 1018.1
20260502221612 16 244 9.7 0.0 0.00 0.00 0.00 41 1018.1
20260502221138 16 249 12.9 0.0 0.00 0.00 0.00 41 1018.1
20260502220618 16 271 9.7 0.0 0.00 0.00 0.00 40 1018.2
20260502220144 16 255 9.7 0.0 0.00 0.00 0.00 40 1018.1
20260502215624 16 279 11.3 0.0 0.00 0.00 0.00 40 1018.2
20260502215105 16 248 9.7 0.0 0.00 0.00 0.00 39 1018.2
20260502214630 16 267 8.0 0.0 0.00 0.00 0.00 38 1018.2
20260502214111 16 236 8.0 0.0 0.00 0.00 0.00 38 1018.3
20260502213636 16 238 9.7 0.0 0.00 0.00 0.00 37 1018.2
20260502213117 16 232 6.4 0.0 0.00 0.00 0.00 37 1018.3
20260502212643 17 253 9.7 0.0 0.00 0.00 0.00 37 1018.2
20260502212123 17 252 11.3 0.0 0.00 0.00 0.00 37 1018.3
20260502211604 17 229 6.4 0.0 0.00 0.00 0.00 36 1018.2
20260502211129 16 238 6.4 0.0 0.00 0.00 0.00 36 1018.3
20260502210610 16 221 6.4 0.0 0.00 0.00 0.00 36 1018.3
20260502210136 16 236 6.4 0.0 0.00 0.00 0.00 36 1018.3
20260502205617 16 217 9.7 0.0 0.00 0.00 0.00 36 1018.4
20260502205143 16 209 6.4 0.0 0.00 0.00 0.00 36 1018.4
20260502204623 15 207 4.8 0.0 0.00 0.00 0.00 36 1018.6
20260502204103 15 220 4.8 0.0 0.00 0.00 0.00 36 1018.5
20260502203629 15 193 4.8 0.0 0.00 0.00 0.00 36 1018.6
20260502203109 15 230 3.2 0.0 0.00 0.00 0.00 36 1018.6
20260502202636 15 208 3.2 0.0 0.00 0.00 0.00 37 1018.6
20260502202115 15 197 3.2 0.0 0.00 0.00 0.00 37 1018.6
20260502201643 15 192 3.2 0.0 0.00 0.00 0.00 37 1018.7
20260502201122 15 192 3.2 0.0 0.00 0.00 0.00 37 1018.7
20260502200602 15 186 4.8 0.0 0.00 0.00 0.00 37 1018.7
20260502200129 15 178 4.8 0.0 0.00 0.00 0.00 37 1018.7
20260502195609 15 184 3.2 0.0 0.00 0.00 0.00 37 1018.8
20260502195135 15 178 3.2 0.0 0.00 0.00 0.00 37 1018.7
20260502194616 15 191 3.2 0.0 0.00 0.00 0.00 38 1018.8
20260502194141 15 201 3.2 0.0 0.00 0.00 0.00 37 1018.8
20260502193621 15 205 3.2 0.0 0.00 0.00 0.00 37 1018.8
20260502193103 15 208 1.6 0.0 0.00 0.00 0.00 37 1019.0
20260502192627 15 218 1.6 0.0 0.00 0.00 0.00 37 1019.0
20260502192108 15 223 3.2 0.0 0.00 0.00 0.00 38 1019.1
20260502191634 15 217 1.6 0.0 0.00 0.00 0.00 38 1019.1
20260502191114 15 211 1.6 0.0 0.00 0.00 0.00 38 1019.1
20260502190640 15 216 1.6 0.0 0.00 0.00 0.00 38 1019.1
20260502190121 15 236 1.6 0.0 0.00 0.00 0.00 37 1019.2
20260502185601 15 237 1.6 0.0 0.00 0.00 0.00 37 1019.1
20260502185127 15 280 1.6 0.0 0.00 0.00 0.00 38 1019.1
20260502184607 15 301 3.2 0.0 0.00 0.00 0.00 37 1019.2
20260502184133 15 254 1.6 0.0 0.00 0.00 0.00 34 1019.1
20260502183614 15 213 1.6 0.0 0.00 0.00 0.00 33 1019.2
20260502183139 16 213 1.6 0.0 0.00 0.00 0.00 32 1019.1
20260502182620 16 211 0.0 0.0 0.00 0.00 0.00 33 1019.1
20260502182100 16 256 1.6 0.0 0.00 0.00 0.00 32 1019.1
20260502181627 17 221 1.6 0.0 0.00 0.00 0.00 30 1019.1
20260502181107 17 271 1.6 0.0 0.00 0.00 0.00 31 1019.1
20260502180632 17 302 1.6 0.0 0.00 0.00 0.00 30 1019.2
20260502180113 18 105 0.0 0.0 0.00 0.00 0.00 29 1019.1
20260502170106 21 119 3.2 0.0 0.00 0.00 0.00 26 1019.4
20260502164118 21 138 1.6 0.0 0.00 0.00 0.00 26 1019.6
20260502163644 22 29 6.4 0.0 0.00 0.00 0.00 25 1019.7
20260502163124 22 85 3.2 0.0 0.00 0.00 0.00 24 1019.7
20260502162605 22 95 4.8 0.0 0.00 0.00 0.00 24 1019.7
20260502162131 22 125 3.2 0.0 0.00 0.00 0.00 24 1019.8
20260502161611 22 105 4.8 0.0 0.00 0.00 0.00 25 1020.0
20260502161137 22 104 3.2 0.0 0.00 0.00 0.00 26 1020.0
20260502160617 22 103 4.8 0.0 0.00 0.00 0.00 26 1020.0
20260502160143 22 101 4.8 0.0 0.00 0.00 0.00 26 1020.0
20260502152123 22 116 11.3 0.0 0.00 0.00 0.00 25 1020.7
20260502151603 22 104 6.4 0.0 0.00 0.00 0.00 25 1020.8
20260502151129 22 93 3.2 0.0 0.00 0.00 0.00 25 1020.8
20260502150609 22 126 8.0 0.0 0.00 0.00 0.00 24 1020.9
20260502150136 22 126 4.8 0.0 0.00 0.00 0.00 24 1021.0
20260502140129 22 87 6.4 0.0 0.00 0.00 0.00 24 1021.5
20260502130640 24 51 9.7 0.0 0.00 0.00 0.00 24 1022.0
20260502130120 24 130 4.8 0.0 0.00 0.00 0.00 24 1022.0
20260502123612 24 123 8.0 0.0 0.00 0.00 0.00 24 1022.3
20260502123138 24 143 4.8 0.0 0.00 0.00 0.00 25 1022.5
20260502122619 23 112 9.7 0.0 0.00 0.00 0.00 25 1022.4
20260502122145 23 81 8.0 0.0 0.00 0.00 0.00 24 1022.6
20260502121625 25 112 9.7 0.0 0.00 0.00 0.00 23 1022.6
20260502121105 25 139 4.8 0.0 0.00 0.00 0.00 23 1022.6
20260502120632 25 121 9.7 0.0 0.00 0.00 0.00 23 1022.5
20260502120112 25 128 9.7 0.0 0.00 0.00 0.00 23 1022.7
20260502115638 25 111 9.7 0.0 0.00 0.00 0.00 22 1022.9
20260502115119 25 124 8.0 0.0 0.00 0.00 0.00 23 1022.9
20260502114644 25 169 8.0 0.0 0.00 0.00 0.00 23 1022.9
20260502114125 25 129 6.4 0.0 0.00 0.00 0.00 23 1023.0
20260502113604 25 118 8.0 0.0 0.00 0.00 0.00 23 1023.1
20260502113131 26 62 6.4 0.0 0.00 0.00 0.00 23 1023.2
20260502112611 26 126 3.2 0.0 0.00 0.00 0.00 24 1023.2
20260502112137 25 214 3.2 0.0 0.00 0.00 0.00 24 1023.3
20260502111619 25 106 4.8 0.0 0.00 0.00 0.00 24 1023.3
20260502111143 24 45 4.8 0.0 0.00 0.00 0.00 24 1023.4
20260502110624 24 57 9.7 0.0 0.00 0.00 0.00 23 1023.4
20260502110104 26 37 12.9 0.0 0.00 0.00 0.00 22 1023.4
20260502105630 26 3 3.2 0.0 0.00 0.00 0.00 19 1023.2
20260502105111 26 254 11.3 0.0 0.00 0.00 0.00 19 1023.5
20260502104636 26 194 6.4 0.0 0.00 0.00 0.00 20 1023.6
20260502104116 25 207 4.8 0.0 0.00 0.00 0.00 21 1023.7
20260502103642 25 259 11.3 0.0 0.00 0.00 0.00 19 1023.7
20260502103123 26 193 9.7 0.0 0.00 0.00 0.00 20 1023.8
20260502102603 25 263 11.3 0.0 0.00 0.00 0.00 21 1023.8
20260502102129 24 229 6.4 0.0 0.00 0.00 0.00 21 1023.8
20260502101609 23 221 12.9 0.0 0.00 0.00 0.00 22 1023.9
20260502101135 23 266 9.7 0.0 0.00 0.00 0.00 22 1024.0
20260502100615 23 308 6.4 0.0 0.00 0.00 0.00 22 1024.0
20260502100142 24 262 14.5 0.0 0.00 0.00 0.00 21 1024.1
20260502091129 22 232 8.0 0.0 0.00 0.00 0.00 25 1024.6
20260502090608 22 225 8.0 0.0 0.00 0.00 0.00 24 1024.7
20260502090135 22 256 6.4 0.0 0.00 0.00 0.00 26 1024.7
20260502071112 20 243 9.7 0.0 0.00 0.00 0.00 31 1025.2
20260502070638 20 258 12.9 0.0 0.00 0.00 0.00 30 1025.2
20260502070118 20 319 8.0 0.0 0.00 0.00 0.00 30 1025.2
20260502065645 20 322 3.2 0.0 0.00 0.00 0.00 31 1025.2
20260502065125 19 325 4.8 0.0 0.00 0.00 0.00 32 1025.3
20260502064605 19 261 11.3 0.0 0.00 0.00 0.00 32 1025.2
20260502064131 19 315 8.0 0.0 0.00 0.00 0.00 32 1025.3
20260502063611 19 256 4.8 0.0 0.00 0.00 0.00 34 1025.2
20260502063138 18 250 8.0 0.0 0.00 0.00 0.00 34 1025.3
20260502062617 18 271 11.3 0.0 0.00 0.00 0.00 34 1025.3
20260502062144 18 268 6.4 0.0 0.00 0.00 0.00 34 1025.5
20260502061624 18 267 6.4 0.0 0.00 0.00 0.00 35 1025.5
20260502061104 18 261 8.0 0.0 0.00 0.00 0.00 36 1025.5
20260502060631 17 238 4.8 0.0 0.00 0.00 0.00 36 1025.5
20260502060112 18 280 4.8 0.0 0.00 0.00 0.00 38 1025.5
20260502055639 17 261 4.8 0.0 0.00 0.00 0.00 37 1025.3
20260502055118 17 273 6.4 0.0 0.00 0.00 0.00 38 1025.3
20260502054644 17 326 4.8 0.0 0.00 0.00 0.00 40 1025.3
20260502054124 16 254 8.0 0.0 0.00 0.00 0.00 40 1025.3